User: anonymous   Login
Location: �couen
(49.0206°N, 2.3831°E)
Time: 10:35:04
(UTC+00:00)
Language:

Cosmos 2098 - Orbit

View from above orbital plane
View from above orbital plane
View from above satellite
View from above satellite

Ground track
Ground track

The orbit data is extracted from the following two-line orbital elements,

1 20774U 90078A   22271.79958855  .00005417  00000-0  41166-3 0  9992
2 20774  82.9481  32.1332 0805796 143.8719 221.9763 13.75493989584922
Epoch (UTC): 28 September 2022 19:11:24
Eccentricity: 0.0805796
inclination: 82.9481°
perigee height: 387 km
apogee height: 1573 km
right ascension of ascending node: 32.1332°
argument of perigee: 143.8719°
revolutions per day: 13.75493989
mean anomaly at epoch: 221.9763°
orbit number at epoch: 58492

The dashed part of the orbit path shows where the satellite is in the earth's shadow,  

DLR